Tracking 29892 objects as of 21-Nov-2024
HD Live streaming from Space Station
objects crossing your sky now

COSMOS 1275 DEB

Track COSMOS 1275 DEB now!
10-day predictions


NORAD ID: 13483
Int'l Code: 1981-053GF
Perigee: 828.0 km
Apogee: 844.8 km
Inclination: 82.9 °
Period: 101.5 minutes
Semi major axis: 7207 km
RCS: 0.0105 m2 (small)
Launch date: June 4, 1981
Source: Commonwealth of Independent States (former USSR) (CIS)
Launch site: PLESETSK MISSILE AND SPACE COMPLEX (PKMTR)

Note: This is SATELLITE DEBRIS
Your satellite tracking list
Your tracking list is empty




NASA's NSSDC Master Catalog

Two Line Element Set (TLE):
1 13483U 81053GD  24325.87812112  .00003317  00000-0  15865-2 0  9993
2 13483  82.9243 185.7719 0011659  16.7459 110.8748 14.18832837166323
Source of the keplerian elements: AFSPC